Volver al catálogo

SPARCS

ActivoCienciaSSO
NORAD 67386·PAYLOAD·🇺🇸 United States
Este nombre de satélite aún no ha sido confirmado por fuentes oficiales.

Lanzado Jan 11, 2026 desde Vandenberg Space Force Base

Loading…

Próximos Pases (próximas 24 horas)

TLE

ActualizadoSource: Space-Track

Época: Sep 14, 2026, 06:42 UTC

1 67386U 26004Z   26257.27919158  .00001286  00000-0  14220-3 0  9995
2 67386  97.8057 254.7349 0002721 158.5763 201.5568 14.89111937 36559

Sigue SPARCS en tiempo real con AllMySat

Download on the App Store